Location: Boston
(42.3580°N, 71.0600°W)
Time: 15:52:01
(UTC-04:00)

ISS - Visible Passes

Search period start: 25 April 2018 00:00
Search period end: 05 May 2018 00:00
Orbit: 403 x 406 km, 51.6° (Epoch: 26 April)

Date Brightness Start Highest point End Pass type
(mag) Time Alt. Az. Time Alt. Az. Time Alt. Az.
30 Apr -1.1 04:48:18 10° SSE 04:49:34 12° SE 04:50:51 10° ESE visible
02 May -2.2 04:38:16 10° SSW 04:41:05 27° SE 04:43:54 10° ENE visible
03 May -1.5 03:48:05 14° SSE 03:48:56 15° SE 03:50:51 10° E visible
04 May -3.7 04:30:28 18° SW 04:32:42 65° SE 04:35:57 10° ENE visible
